Hourly Data Report for July 08, 2021

SECHELT AUT
BRITISH COLUMBIA
Current Station Operator: ECCC - MSC

49°27'28.788" N
123°42'54.945" W
86.20 m
1047172
71638
VOU

Download Data

Hourly Data (July 2021)
Hourly Data Report for July 8, 2021
TIME
LST
Temp Definition
°C
Dew Point Definition
°C
Rel Hum Definition
%
Precip. Amount Definition
mm

Wind Dir Definition
10's deg

Wind Spd Definition
km/h
Visibility Definition
km
Stn Press Definition
kPa
Hmdx Definition


Wind Chill Definition


Weather Definition


00:00 14.1 12.5 90 0.0 32 3   100.55     LegendNANA
01:00 13.9 12.5 91 0.0 35 2   100.56     LegendNANA
02:00 15.1 13.4 90 0.0 8 3   100.59     LegendNANA
03:00 15.7 13.4 86 0.0 14 10   100.59     LegendNANA
04:00 15.4 13.2 87 0.0 12 7   100.60     LegendNANA
05:00 15.5 13.4 87 0.0 13 7   100.61     LegendNANA
06:00 15.8 12.8 83 0.0 14 8   100.60     LegendNANA
07:00 15.7 13.2 85 0.0 15 9   100.62     LegendNANA
08:00 16.1 13.3 83 0.0 15 11   100.65     LegendNANA
09:00 16.7 13.5 81 0.0 14 10   100.67     LegendNANA
10:00 18.4 14.0 76 0.0 15 8   100.67     LegendNANA
11:00 18.6 13.6 72 0.0 15 9   100.69     LegendNANA
12:00 21.0 14.2 65 0.0 16 7   100.69     LegendNANA
13:00 19.6 13.4 68 0.0 19 5   100.67     LegendNANA
14:00 21.4 14.0 63 0.0 14 9   100.64 25   LegendNANA
15:00 21.4 13.9 62 0.0 14 9   100.60 25   LegendNANA
16:00 21.1 14.6 67 0.0 15 8   100.57 25   LegendNANA
17:00 19.7 13.8 69 0.0 14 13   100.56     LegendNANA
18:00 19.2 14.0 72 0.0 16 11   100.54     LegendNANA
19:00 19.8 14.0 69 0.0 14 12   100.56     LegendNANA
20:00 19.0 12.7 67 0.0 13 11   100.61     LegendNANA
21:00 17.8 12.2 70 0.0 13 8   100.67     LegendNANA
22:00 16.9 12.9 77 0.0 11 5   100.71     LegendNANA
23:00 18.0 13.5 75 0.0 11 3   100.72     LegendNANA

Notes on Data Quality.

Legend

  • E = Estimated
  • M = Missing
  • NA = Not Available*
  • [empty] = Indicates an unobserved value
Date modified: